#timestamp,LO_Frequency,Hit,StdDev 
1665835215.5,286047000.8,N
1665835235.3,286047001.1,N
1665835255.2,286046998.2,N
1665835275.0,286046997.0,N
1665835275.9,286046997.0,N
1665835295.8,286046999.4,N
1665835315.6,286046998.2,N
1665835335.4,286046998.4,N
1665835355.3,286046999.3,N
1665835375.1,286046999.2,N
1665835395.8,286046998.1,N
1665835415.7,286046999.9,N
1665835435.5,286047001.0,N
1665835455.4,286046999.9,N
1665835475.2,286047001.2,N
1665835495.0,286047000.7,N
1665835495.9,286047000.7,N
1665835515.8,286047000.8,N
1665835535.6,286046998.1,N
1665835555.5,286046998.1,N
1665835575.3,286046998.8,N
1665835595.1,286046999.3,N
1665835615.9,286046998.2,N
1665835635.7,286046998.4,N
1665835655.5,286047001.2,N
1665835675.4,286047000.6,N
1665835695.2,286047000.7,N
1665835715.1,286046999.1,N
1665835716.0,286046999.1,N
1665835735.8,286046998.9,N
1665835755.6,286046999.1,N
1665835775.5,286046997.0,N
1665835795.3,286046999.2,N
1665835815.2,286046996.5,N
1665835835.0,286046999.5,N
1665835835.9,286046999.5,N
1665835855.8,286046996.6,N
1665835875.6,286046996.5,N
1665835895.4,286046999.6,N
1665835915.3,286046999.6,N
1665835935.1,286046996.5,N
1665835955.9,286046997.3,N
1665835975.7,286046997.1,N
1665835995.5,286046997.7,N
1665836015.4,286046997.0,N
1665836035.2,286046999.5,N
1665836055.0,286046999.3,N
1665836056.0,286046999.3,N
1665836075.8,286046996.8,N
1665836095.6,286046996.7,N
1665836115.5,286046997.2,N
1665836135.3,286046996.8,N
1665836155.1,286046996.9,N
1665836175.9,286046996.9,N
1665836195.7,286046997.1,N
1665836215.6,286046996.6,N
1665836235.4,286046998.7,N
1665836255.2,286046998.3,N
1665836275.1,286047004.5,Y
1665836276.0,286047004.5,P
1665836295.8,286047006.9,N
1665836315.7,286047005.0,N
1665836335.5,286047003.9,N
1665836355.3,286047001.7,N
1665836375.2,286047001.7,N
1665836395.9,286047011.9,Y
1665836415.7,286046998.5,P
1665836435.6,286046999.2,N
1665836455.4,286046998.4,N
1665836475.3,286046998.7,N
1665836495.1,286047001.1,N
1665836515.8,286046998.9,N
1665836535.7,286046999.0,N
1665836555.5,286046999.0,N
1665836575.4,286046998.3,N
1665836595.2,286046996.9,N
1665836615.0,286047000.4,N
1665836615.9,286047000.4,N
1665836635.8,286047001.1,N
1665836655.6,286047013.1,Y
1665836675.4,286047013.3,P
1665836695.3,286047011.0,N
1665836715.1,286047011.9,N
1665836735.9,286047006.5,N
1665836755.7,286047005.7,N
1665836775.5,286047004.1,N
1665836795.4,286046999.9,N
1665836815.2,286047008.5,N
1665836835.0,286047009.9,N
1665836836.0,286047009.9,N
1665836855.8,286047009.4,N
1665836875.6,286047008.3,N
1665836895.5,286047010.3,N
1665836915.3,286047010.7,N
1665836935.2,286047009.2,N
1665836955.9,286047004.6,N
1665836975.7,286047003.1,N
1665836995.6,286047005.6,N
1665837015.4,286047003.7,N
1665837035.2,286047003.8,N
1665837055.1,286047004.3,N
1665837056.0,286047004.3,N
1665837075.8,286047004.1,N
1665837095.7,286047002.1,N
1665837115.5,286046999.7,N
1665837135.3,286047002.3,N
1665837155.2,286047001.9,N
1665837175.9,286047001.6,N
1665837195.7,286047001.9,N
1665837215.6,286047000.4,N
1665837235.4,286047000.8,N
1665837255.3,286047001.2,N
1665837275.1,286046998.5,N
1665837276.0,286046998.5,N
1665837295.8,286046998.5,N
1665837315.7,286047001.1,N
1665837335.5,286046998.3,N
1665837355.3,286046999.3,N
1665837375.2,286046999.3,N
1665837395.0,286046999.1,N
1665837395.9,286046999.1,N
1665837415.8,286046997.1,N
1665837435.6,286046999.1,N
1665837455.4,286046996.5,N
1665837475.3,286046997.1,N
1665837495.1,286046996.5,N
1665837515.8,286046997.4,N
1665837535.7,286046997.1,N
1665837555.5,286046996.7,N
1665837575.4,286046999.5,N
1665837595.2,286046997.1,N
1665837615.0,286046996.9,N
1665837615.9,286046996.9,N
1665837635.8,286046999.6,N
1665837655.6,286046999.6,N
1665837675.4,286046996.9,N
1665837695.3,286046999.1,N
1665837715.1,286046996.7,N
1665837735.9,286046998.9,N
1665837755.7,286046999.3,N
1665837775.5,286046998.9,N
1665837795.4,286046998.7,N
1665837815.2,286047001.2,N
1665837835.0,286047000.9,N
1665837836.0,286047000.9,N
1665837855.8,286046998.5,N
1665837875.6,286046999.4,N
1665837895.5,286046999.3,N
1665837915.3,286046999.3,N
1665837935.1,286046998.7,N
1665837955.9,286046998.6,N
1665837975.7,286046996.7,N
1665837995.6,286046998.9,N
1665838015.4,286046999.0,N
1665838035.2,286047001.2,N
1665838055.1,286047001.2,N
1665838056.0,286047001.2,N
1665838075.8,286047000.9,N
1665838095.6,286047000.8,N
1665838115.5,286047000.0,N
1665838135.3,286047001.1,N
1665838155.2,286047000.5,N
1665838175.9,286047000.7,N
1665838195.7,286047001.1,N
1665838215.6,286047001.0,N
1665838235.4,286046998.9,N
1665838255.2,286047001.2,N
1665838275.1,286046998.8,N
1665838276.0,286046998.8,N
1665838295.8,286046998.7,N
1665838315.7,286046998.9,N
1665838335.5,286046996.6,N
1665838355.3,286046999.0,N
1665838375.2,286046999.0,N
1665838395.0,286046999.1,N
1665838395.9,286046999.1,N
1665838415.7,286046997.0,N
1665838435.6,286046998.4,N
1665838455.4,286046998.7,N
1665838475.3,286047000.7,N
1665838495.1,286046998.3,N
1665838496.0,286046998.3,N
1665838515.8,286046998.4,N
1665838535.7,286047001.2,N
1665838555.5,286047001.2,N
1665838575.3,286047000.8,N
1665838595.2,286046999.9,N
1665838615.0,286047000.3,N
1665838615.9,286047000.3,N
1665838635.8,286047000.6,N
1665838655.6,286047000.4,N
1665838675.4,286046999.8,N
1665838695.3,286047000.4,N
1665838715.1,286047000.9,N
1665838735.8,286047000.6,N
1665838755.7,286047000.9,N
1665838775.5,286046999.8,N
1665838795.4,286047000.1,N
